Find Starlink 35055

NORAD ID: 65524 Int'l Des: 2025-200 Owner: SPXS Country: US Constellation: starlink operational
LEOCIRCULARRETROGRADESSO

当前视图

正在加载3D地球...

About Starlink 35055

Starlink 35055 (NORAD 65524) is a starlink constellation satellite (v2 mini) launched Sep 6, 2025 by SPXS of US. It operates in LEO, CIRCULAR, RETROGRADE, SSO orbit with a mass of 575.00 kg.

即将过境

Passes for default location (London). Set your location on the main map for personalized predictions.

高度历史

Loading altitude history...

两行轨道根数

1 65524U 25200E 26261.92558155 .00015381 00000-0 47754-3 0 9996
2 65524 97.2848 328.3867 0000968 89.1544 270.9809 15.33461224 58406
Epoch: Sep 18, 2026 • Age: 60 hours

当前状态

高度 477.0 km
远地点 / 近地点 N/A
速度 7.63 km/s
星下点 71.58°N, 20.15°E
发射日期 Sep 6, 2025
运行时间 1 year
类型 internet

技术详情

分类 Payload
质量 575.00 kg
干质量 530.00 kg
长度 0.30 m
跨度 29.00 m
形状 ? Box + pan
制造商 SPXS
平台类型 Starlink V2MO
阶段状态 In Orbit
所有者/国家 SPXS/US

Most Searched